FW2178 Weather Reports


Display with metric or nautical units.
time (UTC)temp
F
wind
direction
speed
MPH
gust
MPH
rain 1hr
in
rain 24hr
in
rain mn
in
humidity
%
barometer
mb
20260905202710 65 139 0.0 6.0 0.00 0.02 0.00 64 1015.9
20260905202211 65 26 0.0 4.0 0.00 0.02 0.00 68 1015.8
20260905201708 65 102 0.0 4.0 0.00 0.02 0.00 71 1015.9
20260905201208 65 116 0.0 4.0 0.00 0.02 0.00 71 1015.9
20260905200958 66 136 0.0 4.0 0.00 0.02 0.00 66 1016.0
20260905200208 65 156 0.0 2.0 0.00 0.02 0.00 72 1015.7
20260905195709 65 128 0.0 3.0 0.00 0.02 0.00 70 1015.8
20260905195457 65 96 1.0 3.0 0.00 0.02 0.00 73 1015.9
20260905194709 65 141 0.0 7.0 0.00 0.02 0.00 71 1015.9
20260905194210 65 135 0.0 7.0 0.00 0.02 0.00 70 1015.9
20260905193709 64 131 0.0 13.0 0.00 0.02 0.00 71 1016.1
20260905193504 64 168 0.0 13.0 0.00 0.02 0.00 72 1016.1
20260905192708 64 161 0.0 0.0 0.00 0.02 0.00 72 1016.2
20260905192501 64 143 0.0 0.0 0.00 0.02 0.00 71 1016.2
20260905191959 63 107 0.0 0.0 0.00 0.02 0.00 76 1016.1
20260905191209 63 122 0.0 1.0 0.00 0.02 0.00 79 1016.3
20260905190708 63 134 0.0 1.0 0.00 0.02 0.00 74 1016.2
20260905190209 63 354 0.0 0.0 0.00 0.02 0.00 71 1016.0
20260905185958 63 105 0.0 0.0 0.00 0.02 0.00 75 1016.1
20260905185504 63 132 0.0 0.0 0.00 0.02 0.00 75 1016.2
20260905184708 62 88 0.0 6.0 0.00 0.02 0.00 80 1016.3
20260905184515 61 133 0.0 6.0 0.00 0.02 0.00 83 1016.4
20260905183801 61 139 0.0 0.0 0.00 0.02 0.00 82 1016.4
20260905183736 61 135 0.0 0.0 0.00 0.02 0.00 83 1016.3
20260905182710 61 140 0.0 0.0 0.00 0.02 0.00 85 1016.2
20260905182209 61 119 0.0 0.0 0.00 0.02 0.00 83 1016.5
20260905182003 61 326 0.0 0.0 0.00 0.02 0.00 80 1016.3
20260905181208 61 340 0.0 1.0 0.00 0.02 0.00 80 1016.6
20260905180708 60 128 0.0 1.0 0.00 0.02 0.00 83 1016.7
20260905180207 60 142 0.0 3.0 0.00 0.02 0.00 85 1016.7
20260905180002 60 142 0.0 7.0 0.00 0.02 0.00 82 1016.7
20260905175209 60 142 0.0 7.0 0.00 0.02 0.00 82 1016.9
20260905174708 60 146 0.0 0.0 0.00 0.02 0.00 85 1016.8
20260905174208 60 158 0.0 0.0 0.00 0.02 0.00 84 1016.8
20260905173708 60 140 0.0 0.0 0.00 0.02 0.00 87 1016.7
20260905173208 59 161 0.0 6.0 0.00 0.02 0.00 87 1016.7
20260905172707 58 131 0.0 6.0 0.00 0.02 0.00 89 1016.9
20260905172207 59 122 0.0 3.0 0.00 0.02 0.00 89 1016.7
20260905171709 58 138 0.0 3.0 0.00 0.02 0.00 90 1016.7
20260905171208 58 133 0.0 4.0 0.00 0.02 0.00 91 1016.7
20260905170707 58 129 0.0 4.0 0.00 0.02 0.00 92 1016.8
20260905170209 57 119 1.0 1.0 0.00 0.02 0.00 92 1016.6
20260905165708 57 139 0.0 2.0 0.00 0.02 0.00 93 1016.5
20260905165259 56 136 0.0 0.0 0.00 0.02 0.00 93 1016.5
20260905165233 56 141 0.0 2.0 0.00 0.02 0.00 93 1016.7
20260905164504 56 136 0.0 0.0 0.00 0.02 0.00 93 1016.6
20260905163708 56 132 0.0 0.0 0.00 0.02 0.00 92 1016.7
20260905163459 56 140 0.0 0.0 0.00 0.02 0.00 93 1016.4
20260905162710 55 135 0.0 0.0 0.00 0.02 0.00 94 1016.5
20260905162209 55 139 0.0 0.0 0.00 0.02 0.00 95 1016.5
20260905161708 55 140 0.0 0.0 0.00 0.02 0.00 96 1016.4
20260905161503 55 139 0.0 0.0 0.00 0.02 0.00 98 1016.6
20260905160709 54 228 0.0 0.0 0.00 0.02 0.00 98 1016.4
20260905160528 54 138 0.0 10.0 0.00 0.02 0.00 99 1016.3
20260905155711 53 153 0.0 10.0 0.00 0.02 0.00 99 1016.4
20260905155209 53 153 1.0 3.0 0.00 0.02 0.00 99 1016.4
20260905155025 53 153 0.0 0.0 0.00 0.02 0.00 99 1016.5
20260905154208 53 153 0.0 0.0 0.00 0.02 0.00 99 1016.4
20260905153709 53 153 0.0 0.0 0.00 0.02 0.00 99 1016.7
20260905153208 53 153 0.0 0.0 0.00 0.02 0.00 99 1016.6
20260905153014 53 153 0.0 0.0 0.00 0.02 0.00 99 1016.4
20260905152458 53 153 0.0 0.0 0.00 0.02 0.00 99 1016.2
20260905151707 53 153 0.0 0.0 0.00 0.02 0.00 99 1016.4
20260905151454 52 153 0.0 0.0 0.00 0.02 0.00 99 1016.2
20260905150708 52 153 0.0 0.0 0.00 0.02 0.00 99 1016.2
20260905150209 52 153 0.0 0.0 0.00 0.02 0.00 99 1016.2
20260905145709 52 153 0.0 0.0 0.00 0.02 0.00 99 1016.2
20260905145500 52 153 0.0 0.0 0.00 0.02 0.00 99 1016.1
20260905144707 52 153 0.0 0.0 0.00 0.02 0.00 99 1016.0
20260905144208 52 153 0.0 0.0 0.00 0.02 0.00 99 1015.9
20260905144003 51 153 0.0 0.0 0.00 0.02 0.00 99 1015.9
20260905143207 51 153 0.0 0.0 0.00 0.02 0.00 99 1016.0
20260905142709 51 153 0.0 4.0 0.00 0.02 0.00 99 1015.9
20260905142208 51 153 0.0 4.0 0.00 0.02 0.00 99 1015.9
20260905141709 50 153 0.0 0.0 0.00 0.02 0.00 99 1015.9
20260905141208 50 153 0.0 0.0 0.00 0.02 0.00 99 1016.1
20260905140707 50 153 0.0 0.0 0.00 0.02 0.00 99 1016.1
20260905140209 51 153 0.0 0.0 0.00 0.02 0.00 99 1016.0
20260905135708 51 153 0.0 0.0 0.00 0.02 0.00 99 1015.8
20260905135208 51 153 0.0 0.0 0.00 0.02 0.00 99 1015.7
20260905134710 51 153 0.0 0.0 0.00 0.02 0.00 99 1015.8
20260905134208 51 153 0.0 0.0 0.00 0.02 0.00 99 1015.8
20260905133707 50 153 0.0 0.0 0.00 0.02 0.00 99 1015.7
20260905133208 50 153 0.0 0.0 0.00 0.02 0.00 99 1015.9
20260905133036 50 153 0.0 0.0 0.00 0.02 0.00 99 1015.6
20260905132208 50 153 0.0 0.0 0.00 0.02 0.00 99 1015.9
20260905131709 50 153 0.0 0.0 0.00 0.02 0.00 99 1015.6
20260905131208 50 153 0.0 0.0 0.00 0.02 0.00 99 1015.8
20260905130708 50 153 0.0 0.0 0.00 0.02 0.00 99 1015.9
20260905130209 50 153 0.0 0.0 0.00 0.02 0.00 99 1015.6
20260905125708 50 153 0.0 0.0 0.00 0.02 0.00 99 1015.8
20260905125208 50 153 0.0 0.0 0.00 0.02 0.00 99 1015.6
20260905124709 50 153 0.0 0.0 0.00 0.02 0.00 99 1015.8
20260905124208 50 153 0.0 0.0 0.00 0.02 0.00 99 1015.4
20260905123708 50 153 0.0 0.0 0.00 0.02 0.00 99 1015.4
20260905123208 50 153 0.0 0.0 0.00 0.02 0.00 99 1015.2
20260905122709 50 153 0.0 0.0 0.00 0.02 0.00 99 1015.4
20260905122207 50 153 0.0 0.0 0.00 0.02 0.00 99 1015.4
20260905121708 50 153 0.0 0.0 0.00 0.02 0.00 99 1015.7
20260905121208 50 153 0.0 0.0 0.00 0.02 0.00 99 1015.7
20260905120709 50 153 0.0 0.0 0.00 0.02 0.00 99 1015.4
20260905120209 50 153 0.0 0.0 0.00 0.02 0.00 99 1015.4
20260905115708 50 153 0.0 0.0 0.00 0.02 0.00 99 1015.6
20260905115209 50 153 0.0 0.0 0.00 0.02 0.00 99 1015.4
20260905114707 50 153 0.0 0.0 0.00 0.02 0.00 99 1015.6
20260905114209 50 153 0.0 0.0 0.00 0.02 0.00 99 1015.2
20260905113708 50 153 0.0 0.0 0.00 0.02 0.00 99 1015.6
20260905113209 50 153 0.0 0.0 0.00 0.02 0.00 99 1015.3
20260905112707 50 153 0.0 0.0 0.00 0.02 0.00 99 1015.3
20260905112502 50 153 0.0 0.0 0.00 0.02 0.00 99 1015.3
20260905111709 50 153 0.0 0.0 0.00 0.02 0.00 99 1015.6
20260905111208 50 153 0.0 0.0 0.00 0.02 0.00 99 1015.2
20260905110708 50 153 0.0 0.0 0.00 0.02 0.00 99 1015.3
20260905110208 50 153 0.0 0.0 0.00 0.02 0.00 99 1015.3
20260905105707 50 153 0.0 0.0 0.00 0.02 0.00 99 1015.6
20260905105208 50 153 0.0 0.0 0.00 0.02 0.00 99 1015.3
20260905104959 51 153 0.0 0.0 0.00 0.02 0.00 99 1015.4
20260905104209 51 157 0.0 0.0 0.00 0.02 0.00 99 1015.4
20260905103707 51 157 0.0 0.0 0.00 0.02 0.00 99 1015.6
20260905103257 51 157 0.0 1.0 0.00 0.02 0.00 99 1015.2
20260905103233 51 157 0.0 0.0 0.00 0.02 0.00 99 1015.4
20260905102213 51 157 0.0 1.0 0.00 0.02 0.00 99 1015.3
20260905101709 51 155 0.0 0.0 0.00 0.02 0.00 99 1015.4
20260905101208 51 155 0.0 0.0 0.00 0.02 0.00 99 1015.6
20260905100708 51 155 0.0 0.0 0.00 0.02 0.00 99 1015.3
20260905100516 51 155 0.0 0.0 0.00 0.02 0.00 99 1015.3
20260905095709 51 155 0.0 0.0 0.00 0.02 0.00 99 1015.3
20260905095208 51 155 0.0 7.0 0.00 0.02 0.00 99 1015.2
20260905094708 51 155 0.0 7.0 0.00 0.02 0.00 99 1015.2
20260905094209 51 155 0.0 6.0 0.00 0.02 0.00 99 1015.2
20260905093700 52 157 0.0 0.0 0.00 0.02 0.00 99 1015.0
20260905093200 52 158 0.0 0.0 0.00 0.02 0.00 99 1015.1
20260905092704 52 158 0.0 0.0 0.00 0.02 0.00 99 1015.0
20260905092202 52 158 0.0 0.0 0.00 0.02 0.00 99 1014.9
20260905091701 52 157 0.0 0.0 0.00 0.02 0.00 99 1015.3
20260905091513 52 157 0.0 0.0 0.00 0.02 0.00 99 1014.9
20260905090701 52 157 0.0 0.0 0.00 0.02 0.00 99 1014.7
20260905090200 52 157 0.0 0.0 0.00 0.02 0.00 99 1014.9
20260905085704 52 157 0.0 0.0 0.00 0.02 0.00 99 1014.8
20260905085204 52 157 0.0 0.0 0.00 0.02 0.00 99 1015.1
20260905084701 53 157 0.0 0.0 0.00 0.02 0.00 99 1014.8
20260905084453 53 157 0.0 0.0 0.00 0.02 0.00 99 1014.9
20260905083701 53 157 0.0 0.0 0.00 0.02 0.00 99 1014.7
20260905083202 53 157 0.0 0.0 0.00 0.02 0.00 99 1014.8
20260905083003 53 157 0.0 0.0 0.00 0.02 0.00 99 1014.8
20260905082201 53 157 0.0 0.0 0.00 0.02 0.00 99 1015.0
20260905081702 53 157 0.0 0.0 0.00 0.02 0.00 99 1014.8
20260905081458 53 157 0.0 0.0 0.00 0.02 0.00 99 1014.8
20260905080701 53 157 0.0 0.0 0.00 0.02 0.00 99 1015.0
20260905080202 53 157 0.0 0.0 0.00 0.02 0.00 99 1015.0
20260905075704 53 157 0.0 0.0 0.00 0.02 0.00 99 1014.8
20260905075201 53 157 0.0 0.0 0.00 0.02 0.00 99 1014.8
20260905074702 53 157 0.0 0.0 0.00 0.02 0.00 99 1015.0
20260905074204 53 157 0.0 0.0 0.00 0.02 0.00 99 1015.2
20260905073953 53 157 0.0 0.0 0.00 0.02 0.00 99 1014.8
20260905073602 53 157 0.0 0.0 0.00 0.02 0.00 99 1014.7
20260905073557 53 157 0.0 0.0 0.00 0.02 0.00 99 1014.6
20260905072205 53 157 0.0 0.0 0.00 0.02 0.00 99 1014.9
20260905071957 53 157 0.0 0.0 0.00 0.02 0.00 99 1014.9
20260905071202 53 157 0.0 0.0 0.00 0.02 0.00 99 1014.9
20260905070953 53 157 0.0 0.0 0.00 0.02 0.00 98 1014.9
20260905070204 53 157 0.0 0.0 0.00 0.02 0.00 98 1015.0
20260905065952 53 157 0.0 0.0 0.00 0.02 0.02 98 1014.8
20260905065203 53 157 0.0 0.0 0.00 0.02 0.02 98 1014.9
20260905064705 54 157 0.0 0.0 0.00 0.02 0.02 98 1014.5
20260905064453 54 157 0.0 0.0 0.00 0.02 0.02 98 1014.5
20260905063702 54 158 0.0 0.0 0.00 0.02 0.02 98 1014.5
20260905063206 54 158 0.0 0.0 0.00 0.02 0.02 98 1014.4
20260905062702 54 158 0.0 0.0 0.00 0.02 0.02 98 1014.3
20260905062202 54 158 0.0 0.0 0.00 0.02 0.02 98 1014.5
20260905062003 54 158 0.0 0.0 0.00 0.02 0.02 98 1014.6
20260905061202 54 158 0.0 0.0 0.00 0.02 0.02 98 1014.4
20260905060704 54 158 0.0 0.0 0.00 0.02 0.02 98 1014.4
20260905060204 54 158 0.0 0.0 0.00 0.02 0.02 98 1014.3
20260905055701 54 158 0.0 0.0 0.00 0.02 0.02 98 1014.7
20260905055202 54 158 0.0 0.0 0.00 0.02 0.02 98 1014.4
20260905054705 54 158 0.0 0.0 0.00 0.02 0.02 98 1014.5
20260905054201 54 158 0.0 0.0 0.00 0.02 0.02 97 1014.4
20260905053701 54 157 0.0 0.0 0.00 0.02 0.02 97 1014.6
20260905053603 54 158 0.0 0.0 0.00 0.02 0.02 97 1014.4
20260905053553 54 157 0.0 0.0 0.00 0.02 0.02 97 1014.4
20260905052501 54 158 0.0 0.0 0.00 0.02 0.02 97 1014.4
20260905051701 54 158 0.0 0.0 0.00 0.02 0.02 97 1014.1
20260905051202 55 158 0.0 0.0 0.00 0.02 0.02 97 1014.2
20260905050955 55 158 0.0 0.0 0.00 0.02 0.02 96 1014.4
20260905050201 55 158 0.0 0.0 0.00 0.02 0.02 96 1014.5
20260905045702 55 158 0.0 0.0 0.00 0.02 0.02 96 1014.4
20260905045204 55 158 0.0 0.0 0.00 0.02 0.02 96 1014.4
20260905044701 55 158 0.0 0.0 0.00 0.02 0.02 96 1014.5
20260905044203 55 158 0.0 0.0 0.00 0.02 0.02 96 1014.4
20260905043705 55 158 0.0 0.0 0.00 0.02 0.02 96 1014.4
20260905043201 55 158 0.0 0.0 0.00 0.02 0.02 95 1014.5
20260905042751 55 158 0.0 0.0 0.00 0.02 0.02 95 1014.4
20260905042730 55 158 0.0 0.0 0.00 0.02 0.02 95 1014.5
20260905041702 55 158 0.0 0.0 0.00 0.02 0.02 96 1014.3
20260905041200 55 158 0.0 0.0 0.00 0.02 0.02 96 1014.5
20260905040704 55 158 0.0 0.0 0.00 0.02 0.02 96 1014.3
20260905040201 55 158 0.0 0.0 0.00 0.02 0.02 96 1014.5
20260905035948 55 158 0.0 0.0 0.00 0.02 0.02 96 1014.3
20260905035203 55 159 0.0 0.0 0.00 0.02 0.02 96 1014.2
20260905034702 55 137 0.0 0.0 0.00 0.02 0.02 96 1014.5
20260905034201 55 137 0.0 0.0 0.00 0.02 0.02 96 1014.3
20260905034003 56 137 0.0 0.0 0.01 0.02 0.02 96 1014.4
20260905033454 56 137 0.0 0.0 0.01 0.02 0.02 96 1014.4
20260905032702 56 137 0.0 0.0 0.01 0.02 0.02 96 1014.3
20260905032201 56 137 0.0 0.0 0.01 0.02 0.02 96 1014.2
20260905031948 56 136 0.0 0.0 0.01 0.02 0.02 96 1014.4
20260905031206 56 137 0.0 0.0 0.01 0.02 0.02 96 1014.1
20260905030702 56 137 0.0 0.0 0.01 0.02 0.02 96 1014.2
20260905030201 56 137 0.0 0.0 0.01 0.02 0.02 95 1014.2
20260905025705 56 136 0.0 0.0 0.02 0.01 0.02 95 1014.4
20260905025200 56 138 0.0 0.0 0.02 0.01 0.02 95 1014.1
20260905024702 56 138 0.0 2.0 0.02 0.01 0.02 94 1013.9
20260905024205 56 137 0.0 2.0 0.02 0.01 0.02 94 1013.8
20260905023701 57 135 0.0 0.0 0.01 0.01 0.01 94 1014.0
20260905023455 57 146 0.0 0.0 0.01 0.01 0.01 94 1014.0
20260905022706 57 147 0.0 0.0 0.01 0.01 0.01 94 1013.6
20260905022203 57 150 0.0 1.0 0.01 0.01 0.01 94 1013.8
20260905021704 58 150 0.0 1.0 0.01 0.01 0.01 92 1013.7
20260905021206 58 149 0.0 2.0 0.01 0.01 0.01 91 1014.0
20260905020951 58 149 0.0 8.0 0.01 0.01 0.01 88 1013.9
20260905020203 59 149 0.0 8.0 0.01 0.01 0.01 87 1013.7
20260905015704 60 148 0.0 1.0 0.00 0.00 0.00 82 1013.7
20260905015201 62 145 0.0 0.0 0.00 0.00 0.00 77 1013.6
20260905014947 62 144 0.0 4.0 0.00 0.00 0.00 75 1013.9
20260905014246 62 165 0.0 1.0 0.00 0.00 0.00 70 1013.7
20260905014220 62 144 0.0 4.0 0.00 0.00 0.00 71 1013.7
20260905013147 62 199 0.0 8.0 0.00 0.00 0.00 70 1013.7
20260905012645 62 142 2.0 8.0 0.00 0.00 0.00 72 1013.6
20260905012145 62 138 0.0 6.0 0.00 0.00 0.00 73 1013.6
20260905011938 62 147 0.0 2.0 0.00 0.00 0.00 72 1013.7
20260905011143 62 118 0.0 2.0 0.00 0.00 0.00 72 1013.8
20260905010644 63 52 1.0 2.0 0.00 0.00 0.00 73 1013.5
20260905010143 63 129 0.0 3.0 0.00 0.00 0.00 71 1013.6
20260905005643 65 9 2.0 7.0 0.00 0.00 0.00 70 1013.5
20260905005141 66 142 0.0 7.0 0.00 0.00 0.00 64 1013.0
20260905004638 66 140 0.0 4.0 0.00 0.00 0.00 73 1013.1
20260905004139 67 147 0.0 1.0 0.00 0.00 0.00 68 1013.0
20260905003636 66 138 0.0 2.0 0.00 0.00 0.00 67 1012.7
20260905003135 66 138 0.0 2.0 0.00 0.00 0.00 68 1012.5
20260905002637 66 137 0.0 2.0 0.00 0.00 0.00 65 1012.2
20260905002135 66 103 1.0 2.0 0.00 0.00 0.00 61 1012.1
20260905001637 66 122 0.0 2.0 0.00 0.00 0.00 64 1012.3
20260905001426 66 161 0.0 2.0 0.00 0.00 0.00 70 1012.1
20260905000637 66 157 0.0 2.0 0.00 0.00 0.00 66 1012.2
20260905000137 66 147 0.0 2.0 0.00 0.00 0.00 67 1012.3
20260904235635 67 119 0.0 2.0 0.00 0.00 0.00 63 1012.3
20260904235136 67 152 0.0 4.0 0.00 0.00 0.00 67 1012.4
20260904234636 66 146 0.0 4.0 0.00 0.00 0.00 64 1012.3
20260904234135 66 152 0.0 2.0 0.00 0.00 0.00 63 1012.2
20260904233637 67 138 0.0 1.0 0.00 0.00 0.00 62 1012.2
20260904233136 66 87 0.0 1.0 0.00 0.00 0.00 62 1012.2
20260904232636 66 133 0.0 2.0 0.00 0.00 0.00 66 1012.1
20260904232136 67 158 0.0 2.0 0.00 0.00 0.00 62 1012.2
20260904231636 67 108 1.0 2.0 0.00 0.00 0.00 62 1012.0
20260904231136 67 151 0.0 2.0 0.00 0.00 0.00 64 1012.0
20260904230928 66 4 0.0 2.0 0.00 0.00 0.00 64 1011.9
20260904230136 66 174 0.0 3.0 0.00 0.00 0.00 64 1011.8
20260904225640 66 69 0.0 3.0 0.00 0.00 0.00 64 1012.0
20260904225138 66 106 0.0 0.0 0.00 0.00 0.00 62 1011.8
20260904224637 66 136 0.0 0.0 0.00 0.00 0.00 64 1011.8
20260904224136 66 108 0.0 9.0 0.00 0.00 0.00 63 1011.8
20260904223637 66 144 0.0 9.0 0.00 0.00 0.00 64 1011.9
20260904223135 66 140 0.0 4.0 0.00 0.00 0.00 61 1011.8
20260904222928 66 151 0.0 2.0 0.00 0.00 0.00 63 1011.9
20260904222136 66 155 0.0 2.0 0.00 0.00 0.00 63 1011.8
20260904221636 66 150 0.0 3.0 0.00 0.00 0.00 68 1011.7
20260904221135 66 99 0.0 3.0 0.00 0.00 0.00 67 1011.9
20260904220637 66 139 0.0 0.0 0.00 0.00 0.00 66 1011.8
20260904220135 66 141 0.0 0.0 0.00 0.00 0.00 64 1012.0
20260904215637 66 149 0.0 6.0 0.00 0.00 0.00 64 1011.8
20260904215425 66 132 0.0 6.0 0.00 0.00 0.00 64 1012.0
20260904214637 66 103 0.0 4.0 0.00 0.00 0.00 63 1011.9
20260904214137 66 135 0.0 0.0 0.00 0.00 0.00 69 1011.9
20260904213638 66 161 0.0 0.0 0.00 0.00 0.00 65 1011.9
20260904213137 66 126 0.0 4.0 0.00 0.00 0.00 62 1011.8
20260904212637 66 125 0.0 4.0 0.00 0.00 0.00 63 1011.7
20260904212136 66 176 0.0 2.0 0.00 0.00 0.00 65 1011.8
20260904211637 66 128 0.0 2.0 0.00 0.00 0.00 62 1011.9
20260904211136 66 130 0.0 0.0 0.00 0.00 0.00 63 1011.8
20260904210637 65 148 0.0 1.0 0.00 0.00 0.00 64 1011.7
20260904210426 66 141 0.0 4.0 0.00 0.00 0.00 63 1011.7
20260904205637 65 152 0.0 4.0 0.00 0.00 0.00 65 1011.7
20260904205136 65 138 0.0 4.0 0.00 0.00 0.00 65 1011.7
20260904204639 65 119 0.0 6.0 0.00 0.00 0.00 66 1011.7
20260904204137 65 22 0.0 6.0 0.00 0.00 0.00 65 1011.6
20260904203636 64 133 0.0 3.0 0.00 0.00 0.00 67 1011.8
20260904203135 64 132 0.0 3.0 0.00 0.00 0.00 71 1011.9